Location: Burzi?i
(45.0869°N, 16.0577°E)
Time: 12:10:31
(UTC+00:00)

MOS 1 Rocket - Pass Details

Date: 29 October 2020
Orbit: 615 x 829 km, 97.4° (Epoch: 28 November)

Event Time Altitude Azimuth Distance (km) Brightness Sun altitude
Rises 18:01:51 0° 10° (N) 3,048 6.6 -24.2°
Reaches altitude 10° 18:04:03 10° 9° (N) 2,159 5.8 -24.6°
Maximum altitude 18:08:47 75° 285° (WNW) 753 3.5 -25.4°
Drops below altitude 10° 18:13:47 10° 200° (SSW) 2,281 6.1 -26.3°
Sets 18:16:09 0° 199° (SSW) 3,234 6.9 -26.7°
